This is the latest recevied weather packets stored in our database for station/object XE2B-20. If no packets are shown the sender has not sent any weather packets the latest 10 day(s).
| Time | Temp. | Humidity | Pressure | Rain* | Wind** | Luminosity | Snow |
|---|---|---|---|---|---|---|---|
| 1788276682 | 16.11° C | 71% | 810.8 hPa | - | - | - | - |
| 1788275183 | 14.44° C | 73% | 810.8 hPa | - | - | - | - |
| 1788273683 | 13.89° C | 73% | 810.9 hPa | - | - | - | - |
| 1788272185 | 13.89° C | 73% | 810.8 hPa | - | - | - | - |
| 1788270688 | 13.89° C | 73% | 810.6 hPa | - | - | - | - |
| 1788269188 | 13.89° C | 73% | 810.2 hPa | - | - | - | - |
| 1788267690 | 13.33° C | 73% | 810 hPa | - | - | - | - |
| 1788266191 | 13.33° C | 72% | 809.9 hPa | - | - | - | - |
| 1788264692 | 13.33° C | 72% | 809.6 hPa | - | - | - | - |
| 1788263195 | 13.89° C | 72% | 809.8 hPa | - | - | - | - |
| 1788261695 | 13.33° C | 72% | 809.7 hPa | - | - | - | - |
| 1788260196 | 13.33° C | 72% | 809.9 hPa | - | - | - | - |
| 1788258697 | 13.89° C | 72% | 810.2 hPa | - | - | - | - |
| 1788257197 | 13.89° C | 72% | 810.3 hPa | - | - | - | - |
| 1788255698 | 13.89° C | 71% | 810.4 hPa | - | - | - | - |
| 1788254198 | 13.89° C | 71% | 810.5 hPa | - | - | - | - |
| 1788252700 | 13.89° C | 71% | 810.6 hPa | - | - | - | - |
| 1788251201 | 13.89° C | 70% | 810.7 hPa | - | - | - | - |
| 1788249703 | 13.89° C | 70% | 810.9 hPa | - | - | - | - |
| 1788248206 | 13.89° C | 70% | 811.1 hPa | - | - | - | - |
| 1788246707 | 13.89° C | 70% | 811.1 hPa | - | - | - | - |
| 1788245207 | 13.89° C | 70% | 811.2 hPa | - | - | - | - |
| 1788243708 | 13.89° C | 70% | 811.2 hPa | - | - | - | - |
| 1788242210 | 13.89° C | 70% | 811.1 hPa | - | - | - | - |
| 1788240710 | 14.44° C | 70% | 810.9 hPa | - | - | - | - |
* Rain since midnight (hover to see other rain measurements)
** Current wind speed in m/s (hover to see current wind gust speed)